Barking Sands, HI

10:58 PM HST on May 28, 2017 (GMT -1000)
Barking Sands PMRF

Weather History for PHBK - October, 2012

Change the Weather History Date:

Thursday, October 25, 2012

  Actual Average Record
Temperature  
Mean Temperature 80 °F -  
Max Temperature 86 °F 86 °F 90 °F (1977)
Min Temperature 73 °F 65 °F 60 °F (1965)
Cooling Degree Days 14    
Growing Degree Days 30 (Base 50)    
Moisture  
Dew Point 64 °F    
Average Humidity 60    
Maximum Humidity 85    
Minimum Humidity 41    
Precipitation  
Precipitation 0.04 in - - ()
Sea Level Pressure  
Sea Level Pressure 29.93 in    
Wind  
Wind Speed 5 mph (SSE)    
Max Wind Speed 13 mph    
Max Gust Speed 18 mph    
Visibility 10 miles    
Events Rain    
Averages and records for this station are not official NWS values.
T = Trace of Precipitation, MM = Missing Value Source: NWS Daily Summary

Daily Weather History Graph

Daily Weather History Graph

Search for Another Location

Airport or City:

Trip Planner

Search our weather history database for the weather conditions in past years. The results will help you decide how hot, cold, wet, or windy it might be!

Date:

Astronomy

Oct. 25, 2012 Rise Set
Actual Time 6:39 AM HST 6:06 PM HST
Civil Twilight 6:17 AM HST 6:28 PM HST
Nautical Twilight 5:50 AM HST 6:55 PM HST
Astronomical Twilight 5:24 AM HST 7:21 PM HST
Moon 3:37 PM HST (10/25) 3:12 AM HST (10/25)
Length of Visible Light 12h 11m
Length of Day
11h 26m
Waxing Gibbous, 86% of the Moon is Illuminated
Oct 25
Waxing Gibbous
Oct 29
Full
Nov 6
Last Quarter
Nov 13
New
Nov 20
First Quarter

Hourly Weather History & Observations

Time (HST) Temp. Heat Index Dew Point Humidity Pressure Visibility Wind Dir Wind Speed Gust Speed Precip Events Conditions
12:56 AM 77.0 °F - 69.1 °F 76% 29.92 in 9.0 mi SSE 5.8 mph - 0.02 in Rain Rain
1:56 AM 75.9 °F - 71.1 °F 85% 29.91 in 10.0 mi Calm Calm - 0.02 in   Overcast
2:56 AM 75.0 °F - 69.1 °F 82% 29.90 in 10.0 mi East 3.5 mph - N/A   Mostly Cloudy
3:56 AM 73.9 °F - 68.0 °F 82% 29.89 in 10.0 mi ESE 3.5 mph - N/A   Clear
4:56 AM 73.0 °F - 68.0 °F 84% 29.88 in 10.0 mi Calm Calm - N/A   Scattered Clouds
5:56 AM 73.9 °F - 66.9 °F 79% 29.90 in 10.0 mi Calm Calm - N/A   Overcast
6:56 AM 73.9 °F - 64.9 °F 73% 29.91 in 10.0 mi Calm Calm - N/A   Clear
7:56 AM 75.9 °F - 64.9 °F 69% 29.93 in 10.0 mi Calm Calm - N/A   Mostly Cloudy
8:56 AM 81.0 °F 82.2 °F 63.0 °F 54% 29.94 in 10.0 mi SE 5.8 mph - N/A   Clear
9:56 AM 82.9 °F 83.7 °F 62.1 °F 49% 29.95 in 10.0 mi SE 8.1 mph - N/A   Clear
10:45 AM 82.4 °F 83.9 °F 64.4 °F 54% 29.95 in 10.0 mi Variable 6.9 mph 17.3 mph N/A   Overcast
10:56 AM 84.0 °F 86.5 °F 66.9 °F 56% 29.95 in 10.0 mi South 8.1 mph - N/A   Mostly Cloudy
11:11 AM 84.2 °F 87.3 °F 68.0 °F 58% 29.93 in 10.0 mi South 11.5 mph - N/A   Scattered Clouds
11:56 AM 84.9 °F 88.8 °F 69.1 °F 59% 29.92 in 10.0 mi South 12.7 mph 18.4 mph N/A   Clear
12:56 PM 84.9 °F 88.2 °F 68.0 °F 57% 29.89 in 10.0 mi South 12.7 mph - N/A   Clear
1:56 PM 86.0 °F 89.4 °F 68.0 °F 55% 29.87 in 10.0 mi SSE 10.4 mph 17.3 mph N/A   Clear
2:56 PM 84.0 °F 86.5 °F 66.9 °F 56% 29.88 in 10.0 mi South 12.7 mph - N/A   Clear
3:56 PM 82.9 °F 85.0 °F 66.0 °F 56% 29.88 in 10.0 mi South 10.4 mph - N/A   Clear
4:56 PM 82.0 °F 82.4 °F 60.1 °F 47% 29.89 in 10.0 mi SE 9.2 mph - N/A   Clear
5:56 PM 81.0 °F 80.7 °F 55.0 °F 41% 29.92 in 10.0 mi SSE 6.9 mph - N/A   Clear
6:56 PM 80.1 °F 80.4 °F 57.0 °F 45% 29.94 in 10.0 mi SSE 5.8 mph - N/A   Clear
7:56 PM 78.1 °F - 55.0 °F 45% 29.96 in 10.0 mi SE 8.1 mph - N/A   Clear
8:56 PM 78.1 °F - 55.9 °F 46% 29.98 in 10.0 mi SE 8.1 mph - N/A   Clear
9:56 PM 78.1 °F - 55.0 °F 45% 29.99 in 10.0 mi SSE 3.5 mph - N/A   Clear
10:56 PM 77.0 °F - 55.0 °F 47% 29.99 in 10.0 mi SE 6.9 mph - N/A   Clear
11:56 PM 77.0 °F - 61.0 °F 58% 29.99 in 10.0 mi SSE 4.6 mph - N/A   Clear